This is the latest recevied weather packets stored in our database for station/object K5SVV. If no packets are shown the sender has not sent any weather packets the latest 10 day(s).
| Time | Temp. | Humidity | Pressure | Rain* | Wind** | Luminosity | Snow |
|---|---|---|---|---|---|---|---|
| 1788536930 | 30.56° C | 67% | 1014.6 hPa | 0 mm | - | 685 W/m² | - |
| 1788536626 | 30.56° C | 74% | 1014.6 hPa | 0 mm | - | 507 W/m² | - |
| 1788536321 | 30° C | 75% | 1014.5 hPa | 0 mm | - | 715 W/m² | - |
| 1788536016 | 29.44° C | 79% | 1014.4 hPa | 0 mm | - | 590 W/m² | - |
| 1788535712 | 28.89° C | 79% | 1014.1 hPa | 0 mm | - | 696 W/m² | - |
| 1788535407 | 28.89° C | 79% | 1014.6 hPa | 0 mm | - | 602 W/m² | - |
| 1788535102 | 28.89° C | 81% | 1014.4 hPa | 0 mm | - | 348 W/m² | - |
| 1788534801 | 28.33° C | 83% | 1014.2 hPa | 0 mm | - | 572 W/m² | - |
| 1788534497 | 28.33° C | 83% | 1014.4 hPa | 0 mm | - | 571 W/m² | - |
| 1788534192 | 27.78° C | 84% | 1014.6 hPa | 0 mm | - | 562 W/m² | - |
| 1788533890 | 27.78° C | 85% | 1014.4 hPa | 0 mm | - | 577 W/m² | - |
| 1788533587 | 27.78° C | 85% | 1014.6 hPa | 0 mm | - | 402 W/m² | - |
| 1788533281 | 27.78° C | 87% | 1014.5 hPa | 0 mm | - | 519 W/m² | - |
| 1788532977 | 27.22° C | 89% | 1014.4 hPa | 0 mm | - | 219 W/m² | - |
| 1788532673 | 27.22° C | 89% | 1014.1 hPa | 0 mm | - | 382 W/m² | - |
| 1788532369 | 26.67° C | 91% | 1014.2 hPa | 0 mm | - | 204 W/m² | - |
| 1788532064 | 26.67° C | 93% | 1014 hPa | 0 mm | - | 132 W/m² | - |
| 1788531761 | 26.11° C | 95% | 1014.4 hPa | 0 mm | - | 118 W/m² | - |
| 1788531455 | 25.56° C | 96% | 1014.5 hPa | 0 mm | - | 298 W/m² | - |
| 1788531151 | 25.56° C | 96% | 1014.1 hPa | 0 mm | - | 279 W/m² | - |
| 1788530846 | 25.56° C | 96% | 1014.2 hPa | 0 mm | - | 161 W/m² | - |
| 1788530541 | 25° C | 97% | 1014.2 hPa | 0 mm | - | 137 W/m² | - |
| 1788530240 | 25° C | 97% | 1014.5 hPa | 0 mm | - | 102 W/m² | - |
| 1788529936 | 25° C | 97% | 1014.2 hPa | 0 mm | - | 143 W/m² | - |
| 1788529631 | 25° C | 97% | 1014 hPa | 0 mm | - | 109 W/m² | - |
* Rain latest hour (hover to see other rain measurements)
** Current wind speed in m/s (hover to see current wind gust speed)